Time,TemperatureF,DewpointF,PressureIn,WindDirection,WindDirectionDegrees,WindSpeedMPH,WindSpeedGustMPH,Humidity,HourlyPrecipIn,Conditions,Clouds,dailyrainin,SoftwareType,DateUTC
2013-05-01 00:02:00,61.8,53.1,30.04,NW,325,0.0,3.0,73,0.00,,,0.00,Wunderground v.1.15,2013-05-01 05:02:00,
2013-05-01 00:07:00,61.5,53.1,30.04,SE,138,0.0,3.0,74,0.00,,,0.00,Wunderground v.1.15,2013-05-01 05:07:00,
2013-05-01 00:13:00,61.2,53.2,30.04,NE,40,1.0,2.0,75,0.00,,,0.00,Wunderground v.1.15,2013-05-01 05:13:00,
2013-05-01 00:19:00,61.0,53.0,30.04,SE,128,1.0,3.0,75,0.00,,,0.00,Wunderground v.1.15,2013-05-01 05:19:00,
2013-05-01 00:24:00,61.0,53.4,30.04,East,100,0.0,4.0,76,0.00,,,0.00,Wunderground v.1.15,2013-05-01 05:24:00,
2013-05-01 00:29:00,60.9,53.3,30.03,ESE,104,1.0,4.0,76,0.00,,,0.00,Wunderground v.1.15,2013-05-01 05:29:00,
2013-05-01 00:35:00,60.7,53.4,30.03,SE,145,8.0,8.0,77,0.00,,,0.00,Wunderground v.1.15,2013-05-01 05:35:00,
2013-05-01 00:40:00,60.7,53.8,30.03,North,355,1.0,2.0,78,0.00,,,0.00,Wunderground v.1.15,2013-05-01 05:40:00,
2013-05-01 00:45:00,60.5,53.6,30.03,South,174,1.0,4.0,78,0.00,,,0.00,Wunderground v.1.15,2013-05-01 05:45:00,
2013-05-01 00:51:00,60.2,53.7,30.03,SSE,167,1.0,3.0,79,0.00,,,0.00,Wunderground v.1.15,2013-05-01 05:51:00,
2013-05-01 00:56:00,59.7,53.9,30.03,SE,137,1.0,3.0,81,0.00,,,0.00,Wunderground v.1.15,2013-05-01 05:56:00,
2013-05-01 01:02:00,59.5,54.0,30.03,SE,136,4.0,4.0,82,0.00,,,0.00,Wunderground v.1.15,2013-05-01 06:02:00,
2013-05-01 01:07:00,59.5,54.3,30.02,North,5,0.0,8.0,83,0.00,,,0.00,Wunderground v.1.15,2013-05-01 06:07:00,
2013-05-01 01:13:00,59.3,54.1,30.02,SSE,155,3.0,5.0,83,0.00,,,0.00,Wunderground v.1.15,2013-05-01 06:13:00,
2013-05-01 01:19:00,59.1,54.3,30.03,SSE,150,3.0,8.0,84,0.00,,,0.00,Wunderground v.1.15,2013-05-01 06:19:00,
2013-05-01 01:25:00,58.9,54.7,30.03,East,93,2.0,4.0,86,0.00,,,0.00,Wunderground v.1.15,2013-05-01 06:25:00,
2013-05-01 01:31:00,58.9,54.7,30.03,SE,142,1.0,3.0,86,0.00,,,0.00,Wunderground v.1.15,2013-05-01 06:31:00,
2013-05-01 01:37:00,58.7,54.5,30.03,SE,146,8.0,8.0,86,0.00,,,0.00,Wunderground v.1.15,2013-05-01 06:37:00,
2013-05-01 01:42:00,58.7,54.8,30.02,ESE,110,1.0,5.0,87,0.00,,,0.00,Wunderground v.1.15,2013-05-01 06:42:00,
2013-05-01 01:47:00,58.6,54.7,30.02,NW,313,2.0,5.0,87,0.00,,,0.00,Wunderground v.1.15,2013-05-01 06:47:00,
2013-05-01 01:53:00,58.7,54.8,30.02,SE,130,0.0,4.0,87,0.00,,,0.00,Wunderground v.1.15,2013-05-01 06:53:00,
2013-05-01 01:59:00,58.6,55.1,30.02,North,5,1.0,4.0,88,0.00,,,0.00,Wunderground v.1.15,2013-05-01 06:59:00,
2013-05-01 02:04:00,58.5,55.0,30.02,East,97,2.0,10.0,88,0.00,,,0.00,Wunderground v.1.15,2013-05-01 07:04:00,
2013-05-01 02:09:00,58.4,54.9,30.01,SSE,167,2.0,10.0,88,0.00,,,0.00,Wunderground v.1.15,2013-05-01 07:09:00,
2013-05-01 02:14:00,58.3,54.8,30.01,East,94,5.0,9.0,88,0.00,,,0.00,Wunderground v.1.15,2013-05-01 07:14:00,
2013-05-01 02:19:00,58.2,55.0,30.01,ENE,75,5.0,9.0,89,0.00,,,0.00,Wunderground v.1.15,2013-05-01 07:19:00,
2013-05-01 02:24:00,58.1,54.9,30.01,SE,130,7.0,10.0,89,0.00,,,0.00,Wunderground v.1.15,2013-05-01 07:24:00,
2013-05-01 02:29:00,58.0,54.8,30.01,East,83,1.0,10.0,89,0.00,,,0.00,Wunderground v.1.15,2013-05-01 07:29:00,
2013-05-01 02:34:00,57.8,54.9,30.01,SSE,167,1.0,8.0,90,0.00,,,0.00,Wunderground v.1.15,2013-05-01 07:34:00,
2013-05-01 02:39:00,57.8,54.9,30.01,ESE,115,5.0,9.0,90,0.00,,,0.00,Wunderground v.1.15,2013-05-01 07:39:00,
2013-05-01 02:45:00,57.9,55.0,30.01,ESE,112,4.0,9.0,90,0.00,,,0.00,Wunderground v.1.15,2013-05-01 07:45:00,
2013-05-01 02:50:00,57.8,54.9,30.01,SSE,150,5.0,9.0,90,0.00,,,0.00,Wunderground v.1.15,2013-05-01 07:50:00,
2013-05-01 02:55:00,57.8,55.2,30.01,NNE,27,3.0,8.0,91,0.00,,,0.00,Wunderground v.1.15,2013-05-01 07:55:00,
2013-05-01 03:00:00,57.7,55.1,30.01,SW,223,2.0,9.0,91,0.00,,,0.00,Wunderground v.1.15,2013-05-01 08:00:00,
2013-05-01 03:05:00,57.7,55.1,30.01,ESE,109,3.0,8.0,91,0.00,,,0.00,Wunderground v.1.15,2013-05-01 08:05:00,
2013-05-01 03:10:00,57.7,55.1,30.01,ESE,120,3.0,9.0,91,0.00,,,0.00,Wunderground v.1.15,2013-05-01 08:10:00,
2013-05-01 03:15:00,57.7,55.1,30.01,East,89,2.0,6.0,91,0.00,,,0.00,Wunderground v.1.15,2013-05-01 08:15:00,
2013-05-01 03:20:00,57.7,55.4,30.01,ENE,62,4.0,4.0,92,0.00,,,0.00,Wunderground v.1.15,2013-05-01 08:20:00,
2013-05-01 03:25:00,57.6,55.3,30.01,SE,138,4.0,9.0,92,0.00,,,0.00,Wunderground v.1.15,2013-05-01 08:25:00,
2013-05-01 03:30:00,57.6,55.3,30.01,SSE,161,2.0,3.0,92,0.00,,,0.00,Wunderground v.1.15,2013-05-01 08:30:00,
2013-05-01 03:35:00,57.6,55.3,30.01,East,94,2.0,8.0,92,0.00,,,0.00,Wunderground v.1.15,2013-05-01 08:35:00,
2013-05-01 03:40:00,57.6,55.3,30.01,NNW,337,3.0,3.0,92,0.00,,,0.00,Wunderground v.1.15,2013-05-01 08:40:00,
2013-05-01 03:45:00,57.5,55.2,30.01,South,181,0.0,7.0,92,0.00,,,0.00,Wunderground v.1.15,2013-05-01 08:45:00,
2013-05-01 03:50:00,57.6,55.3,30.01,SW,232,3.0,5.0,92,0.00,,,0.00,Wunderground v.1.15,2013-05-01 08:50:00,
2013-05-01 03:55:00,57.6,55.3,30.01,SSE,159,1.0,7.0,92,0.00,,,0.00,Wunderground v.1.15,2013-05-01 08:55:00,
2013-05-01 04:00:00,57.5,55.5,30.01,NNW,329,1.0,3.0,93,0.00,,,0.00,Wunderground v.1.15,2013-05-01 09:00:00,
2013-05-01 04:05:00,57.5,55.5,30.01,SSE,153,4.0,9.0,93,0.00,,,0.00,Wunderground v.1.15,2013-05-01 09:05:00,
2013-05-01 04:10:00,57.4,55.4,30.01,South,170,1.0,2.0,93,0.00,,,0.00,Wunderground v.1.15,2013-05-01 09:10:00,
2013-05-01 04:15:00,57.4,55.4,30.01,ENE,76,2.0,5.0,93,0.00,,,0.00,Wunderground v.1.15,2013-05-01 09:15:00,
2013-05-01 04:20:00,57.3,55.3,30.01,ESE,121,4.0,7.0,93,0.00,,,0.00,Wunderground v.1.15,2013-05-01 09:20:00,
2013-05-01 04:25:00,57.4,55.4,30.02,SSE,148,0.0,8.0,93,0.00,,,0.00,Wunderground v.1.15,2013-05-01 09:25:00,
2013-05-01 04:30:00,57.4,55.4,30.02,East,101,2.0,4.0,93,0.00,,,0.00,Wunderground v.1.15,2013-05-01 09:30:00,
2013-05-01 04:35:00,57.4,55.4,30.02,SSE,161,0.0,8.0,93,0.00,,,0.00,Wunderground v.1.15,2013-05-01 09:35:00,
2013-05-01 04:40:00,57.3,55.3,30.02,ESE,113,0.0,2.0,93,0.00,,,0.00,Wunderground v.1.15,2013-05-01 09:40:00,
2013-05-01 04:45:00,57.3,55.3,30.02,SE,142,3.0,6.0,93,0.00,,,0.00,Wunderground v.1.15,2013-05-01 09:45:00,
2013-05-01 04:50:00,57.3,55.3,30.02,South,181,3.0,3.0,93,0.00,,,0.00,Wunderground v.1.15,2013-05-01 09:50:00,
2013-05-01 04:55:00,57.3,55.3,30.02,SE,126,0.0,5.0,93,0.00,,,0.00,Wunderground v.1.15,2013-05-01 09:55:00,
2013-05-01 05:00:00,57.2,55.2,30.03,East,88,1.0,2.0,93,0.00,,,0.00,Wunderground v.1.15,2013-05-01 10:00:00,
2013-05-01 05:05:00,57.2,55.2,30.03,ESE,116,1.0,4.0,93,0.00,,,0.00,Wunderground v.1.15,2013-05-01 10:05:00,
2013-05-01 05:10:00,57.2,55.2,30.03,ESE,115,2.0,5.0,93,0.00,,,0.00,Wunderground v.1.15,2013-05-01 10:10:00,
2013-05-01 05:15:00,57.1,55.1,30.03,SE,132,2.0,7.0,93,0.00,,,0.00,Wunderground v.1.15,2013-05-01 10:15:00,
2013-05-01 05:20:00,57.1,55.1,30.03,SSE,152,2.0,4.0,93,0.00,,,0.00,Wunderground v.1.15,2013-05-01 10:20:00,
2013-05-01 05:25:00,57.1,55.1,30.03,SSE,168,0.0,5.0,93,0.00,,,0.00,Wunderground v.1.15,2013-05-01 10:25:00,
2013-05-01 05:31:00,57.1,55.1,30.03,SE,130,4.0,5.0,93,0.00,,,0.00,Wunderground v.1.15,2013-05-01 10:31:00,
2013-05-01 05:36:00,57.0,55.3,30.03,SW,215,0.0,7.0,94,0.00,,,0.00,Wunderground v.1.15,2013-05-01 10:36:00,
2013-05-01 05:41:00,57.0,55.3,30.04,ENE,69,2.0,5.0,94,0.00,,,0.00,Wunderground v.1.15,2013-05-01 10:41:00,
2013-05-01 05:46:00,56.9,55.2,30.04,SE,125,4.0,8.0,94,0.00,,,0.00,Wunderground v.1.15,2013-05-01 10:46:00,
2013-05-01 05:51:00,56.8,55.1,30.03,East,91,3.0,6.0,94,0.00,,,0.00,Wunderground v.1.15,2013-05-01 10:51:00,
2013-05-01 05:56:00,56.8,55.1,30.03,East,79,3.0,10.0,94,0.00,,,0.00,Wunderground v.1.15,2013-05-01 10:56:00,
2013-05-01 06:01:00,56.7,55.0,30.03,SE,140,2.0,8.0,94,0.00,,,0.00,Wunderground v.1.15,2013-05-01 11:01:00,
2013-05-01 06:06:00,56.7,55.0,30.03,South,178,0.0,8.0,94,0.00,,,0.00,Wunderground v.1.15,2013-05-01 11:06:00,
2013-05-01 06:11:00,56.8,55.1,30.04,SE,129,4.0,8.0,94,0.00,,,0.00,Wunderground v.1.15,2013-05-01 11:11:00,
2013-05-01 06:16:00,56.8,55.1,30.04,SE,128,2.0,8.0,94,0.00,,,0.00,Wunderground v.1.15,2013-05-01 11:16:00,
2013-05-01 06:21:00,56.7,55.0,30.04,SSE,161,2.0,4.0,94,0.00,,,0.00,Wunderground v.1.15,2013-05-01 11:21:00,
2013-05-01 06:26:00,56.8,55.4,30.04,NE,44,2.0,7.0,95,0.00,,,0.00,Wunderground v.1.15,2013-05-01 11:26:00,
2013-05-01 06:31:00,56.9,55.5,30.04,SE,126,0.0,5.0,95,0.00,,,0.00,Wunderground v.1.15,2013-05-01 11:31:00,
2013-05-01 06:36:00,57.0,55.6,30.05,South,190,1.0,5.0,95,0.00,,,0.00,Wunderground v.1.15,2013-05-01 11:36:00,
2013-05-01 06:41:00,57.1,55.7,30.05,SE,137,1.0,3.0,95,0.00,,,0.00,Wunderground v.1.15,2013-05-01 11:41:00,
2013-05-01 06:46:00,57.2,55.5,30.06,SSE,163,2.0,5.0,94,0.00,,,0.00,Wunderground v.1.15,2013-05-01 11:46:00,
2013-05-01 06:51:00,57.2,55.5,30.06,SSE,157,3.0,3.0,94,0.00,,,0.00,Wunderground v.1.15,2013-05-01 11:51:00,
2013-05-01 06:56:00,57.3,55.6,30.06,SSE,162,0.0,5.0,94,0.00,,,0.00,Wunderground v.1.15,2013-05-01 11:56:00,
2013-05-01 07:01:00,57.4,55.7,30.06,SE,131,0.0,4.0,94,0.00,,,0.00,Wunderground v.1.15,2013-05-01 12:01:00,
2013-05-01 07:06:00,57.5,55.8,30.07,East,90,5.0,6.0,94,0.00,,,0.00,Wunderground v.1.15,2013-05-01 12:06:00,
2013-05-01 07:11:00,57.6,55.9,30.07,SE,144,1.0,3.0,94,0.00,,,0.00,Wunderground v.1.15,2013-05-01 12:11:00,
2013-05-01 07:16:00,57.7,56.0,30.07,SE,132,0.0,4.0,94,0.00,,,0.00,Wunderground v.1.15,2013-05-01 12:16:00,
2013-05-01 07:21:00,57.8,56.1,30.07,SE,130,1.0,1.0,94,0.00,,,0.00,Wunderground v.1.15,2013-05-01 12:21:00,
2013-05-01 07:26:00,58.0,56.3,30.07,ESE,121,1.0,4.0,94,0.00,,,0.00,Wunderground v.1.15,2013-05-01 12:26:00,
2013-05-01 07:31:00,58.1,56.1,30.07,SE,125,1.0,2.0,93,0.00,,,0.00,Wunderground v.1.15,2013-05-01 12:31:00,
2013-05-01 07:36:00,58.2,56.2,30.07,SE,138,0.0,5.0,93,0.00,,,0.00,Wunderground v.1.15,2013-05-01 12:36:00,
2013-05-01 07:41:00,58.3,56.3,30.07,SE,140,0.0,2.0,93,0.00,,,0.00,Wunderground v.1.15,2013-05-01 12:41:00,
2013-05-01 07:46:00,58.4,56.4,30.08,ESE,111,0.0,2.0,93,0.00,,,0.00,Wunderground v.1.15,2013-05-01 12:46:00,
2013-05-01 07:51:00,58.5,56.2,30.08,ESE,123,1.0,2.0,92,0.00,,,0.00,Wunderground v.1.15,2013-05-01 12:51:00,
2013-05-01 07:56:00,58.7,56.4,30.08,South,174,0.0,3.0,92,0.00,,,0.00,Wunderground v.1.15,2013-05-01 12:56:00,
2013-05-01 08:01:00,59.1,56.8,30.08,East,94,0.0,3.0,92,0.00,,,0.00,Wunderground v.1.15,2013-05-01 13:01:00,
2013-05-01 08:06:00,59.5,56.9,30.09,SE,139,1.0,3.0,91,0.00,,,0.00,Wunderground v.1.15,2013-05-01 13:06:00,
2013-05-01 08:11:00,59.8,56.9,30.09,SE,125,4.0,4.0,90,0.00,,,0.00,Wunderground v.1.15,2013-05-01 13:11:00,
2013-05-01 08:16:00,59.9,56.6,30.09,SE,131,1.0,7.0,89,0.00,,,0.00,Wunderground v.1.15,2013-05-01 13:16:00,
2013-05-01 08:21:00,60.0,56.7,30.09,East,94,0.0,3.0,89,0.00,,,0.00,Wunderground v.1.15,2013-05-01 13:21:00,
2013-05-01 08:26:00,60.2,56.9,30.09,ESE,114,0.0,5.0,89,0.00,,,0.00,Wunderground v.1.15,2013-05-01 13:26:00,
2013-05-01 08:32:00,60.7,56.8,30.10,SE,140,4.0,4.0,87,0.00,,,0.00,Wunderground v.1.15,2013-05-01 13:32:00,
2013-05-01 08:37:00,61.2,57.6,30.10,NNW,339,3.0,7.0,88,0.00,,,0.00,Wunderground v.1.15,2013-05-01 13:37:00,
2013-05-01 08:42:00,61.8,57.9,30.10,ESE,109,4.0,4.0,87,0.00,,,0.00,Wunderground v.1.15,2013-05-01 13:42:00,
2013-05-01 08:47:00,62.2,57.6,30.10,SSE,163,2.0,5.0,85,0.00,,,0.00,Wunderground v.1.15,2013-05-01 13:47:00,
2013-05-01 08:52:00,62.4,57.5,30.10,ESE,119,2.0,5.0,84,0.00,,,0.00,Wunderground v.1.15,2013-05-01 13:52:00,
2013-05-01 08:57:00,62.3,57.4,30.09,ESE,120,0.0,5.0,84,0.00,,,0.00,Wunderground v.1.15,2013-05-01 13:57:00,
2013-05-01 09:02:00,62.1,56.9,30.09,SE,138,1.0,4.0,83,0.00,,,0.00,Wunderground v.1.15,2013-05-01 14:02:00,
2013-05-01 09:07:00,61.9,57.0,30.10,ESE,119,3.0,5.0,84,0.00,,,0.00,Wunderground v.1.15,2013-05-01 14:07:00,
2013-05-01 09:12:00,62.0,57.1,30.10,ESE,109,0.0,2.0,84,0.00,,,0.00,Wunderground v.1.15,2013-05-01 14:12:00,
2013-05-01 09:17:00,62.1,57.2,30.09,South,186,0.0,3.0,84,0.00,,,0.00,Wunderground v.1.15,2013-05-01 14:17:00,
2013-05-01 09:22:00,62.4,57.5,30.09,East,98,2.0,2.0,84,0.00,,,0.00,Wunderground v.1.15,2013-05-01 14:22:00,
2013-05-01 09:27:00,62.8,57.9,30.09,ESE,112,0.0,2.0,84,0.00,,,0.00,Wunderground v.1.15,2013-05-01 14:27:00,
2013-05-01 09:32:00,63.1,57.9,30.09,ENE,59,0.0,2.0,83,0.00,,,0.00,Wunderground v.1.15,2013-05-01 14:32:00,
2013-05-01 09:37:00,63.4,57.8,30.09,SE,126,0.0,3.0,82,0.00,,,0.00,Wunderground v.1.15,2013-05-01 14:37:00,
2013-05-01 09:42:00,63.5,57.6,30.09,SE,144,0.0,1.0,81,0.00,,,0.00,Wunderground v.1.15,2013-05-01 14:42:00,
2013-05-01 09:47:00,63.7,57.8,30.09,ESE,107,2.0,3.0,81,0.00,,,0.00,Wunderground v.1.15,2013-05-01 14:47:00,
2013-05-01 09:52:00,63.9,57.3,30.09,ENE,66,0.0,3.0,79,0.00,,,0.00,Wunderground v.1.15,2013-05-01 14:52:00,
2013-05-01 09:57:00,64.1,57.5,30.10,East,88,0.0,4.0,79,0.00,,,0.00,Wunderground v.1.15,2013-05-01 14:57:00,
2013-05-01 10:02:00,64.5,57.5,30.10,ESE,114,0.0,4.0,78,0.00,,,0.00,Wunderground v.1.15,2013-05-01 15:02:00,
2013-05-01 10:07:00,64.8,57.8,30.10,ESE,123,1.0,5.0,78,0.00,,,0.00,Wunderground v.1.15,2013-05-01 15:07:00,
2013-05-01 10:12:00,64.9,57.5,30.11,West,279,0.0,4.0,77,0.00,,,0.00,Wunderground v.1.15,2013-05-01 15:12:00,
2013-05-01 10:17:00,65.0,57.6,30.11,NNW,329,1.0,4.0,77,0.00,,,0.00,Wunderground v.1.15,2013-05-01 15:17:00,
2013-05-01 10:22:00,65.1,58.4,30.11,NE,52,1.0,2.0,79,0.00,,,0.00,Wunderground v.1.15,2013-05-01 15:22:00,
2013-05-01 10:27:00,65.5,58.8,30.11,ESE,112,0.0,4.0,79,0.00,,,0.00,Wunderground v.1.15,2013-05-01 15:27:00,
2013-05-01 10:32:00,66.1,58.7,30.10,ESE,121,1.0,4.0,77,0.00,,,0.00,Wunderground v.1.15,2013-05-01 15:32:00,
2013-05-01 10:37:00,66.4,58.6,30.10,ESE,103,3.0,4.0,76,0.00,,,0.00,Wunderground v.1.15,2013-05-01 15:37:00,
2013-05-01 10:42:00,66.9,58.3,30.11,East,96,1.0,1.0,74,0.00,,,0.00,Wunderground v.1.15,2013-05-01 15:42:00,
2013-05-01 10:47:00,67.3,58.7,30.10,NNW,328,2.0,4.0,74,0.00,,,0.00,Wunderground v.1.15,2013-05-01 15:47:00,
2013-05-01 10:52:00,67.9,58.1,30.10,SE,131,3.0,8.0,71,0.00,,,0.00,Wunderground v.1.15,2013-05-01 15:52:00,
2013-05-01 10:57:00,68.0,58.6,30.10,East,90,0.0,8.0,72,0.00,,,0.00,Wunderground v.1.15,2013-05-01 15:57:00,
2013-05-01 11:02:00,68.1,58.3,30.10,ESE,107,2.0,2.0,71,0.00,,,0.00,Wunderground v.1.15,2013-05-01 16:02:00,
2013-05-01 11:07:00,68.3,56.9,30.10,East,90,0.0,3.0,67,0.00,,,0.00,Wunderground v.1.15,2013-05-01 16:07:00,
2013-05-01 11:12:00,68.4,57.8,30.10,ESE,105,3.0,5.0,69,0.00,,,0.00,Wunderground v.1.15,2013-05-01 16:12:00,
2013-05-01 11:17:00,68.6,56.8,30.10,South,171,1.0,7.0,66,0.00,,,0.00,Wunderground v.1.15,2013-05-01 16:17:00,
2013-05-01 11:22:00,68.5,56.7,30.10,South,173,0.0,5.0,66,0.00,,,0.00,Wunderground v.1.15,2013-05-01 16:22:00,
2013-05-01 11:27:00,68.9,57.1,30.10,East,89,1.0,6.0,66,0.00,,,0.00,Wunderground v.1.15,2013-05-01 16:27:00,
2013-05-01 11:32:00,69.2,56.1,30.09,ESE,115,2.0,9.0,63,0.00,,,0.00,Wunderground v.1.15,2013-05-01 16:32:00,
2013-05-01 11:37:00,69.5,56.8,30.09,East,88,3.0,9.0,64,0.00,,,0.00,Wunderground v.1.15,2013-05-01 16:37:00,
2013-05-01 11:43:00,69.4,57.1,30.09,East,98,2.0,4.0,65,0.00,,,0.00,Wunderground v.1.15,2013-05-01 16:43:00,
2013-05-01 11:48:00,69.4,56.7,30.09,SE,125,0.0,7.0,64,0.00,,,0.00,Wunderground v.1.15,2013-05-01 16:48:00,
2013-05-01 11:53:00,69.4,56.7,30.09,SSE,163,0.0,3.0,64,0.00,,,0.00,Wunderground v.1.15,2013-05-01 16:53:00,
2013-05-01 11:58:00,69.4,56.7,30.09,ESE,108,4.0,6.0,64,0.00,,,0.00,Wunderground v.1.15,2013-05-01 16:58:00,
2013-05-01 12:03:00,69.6,57.3,30.09,ESE,105,0.0,4.0,65,0.00,,,0.00,Wunderground v.1.15,2013-05-01 17:03:00,
2013-05-01 12:08:00,69.7,57.4,30.09,East,79,2.0,7.0,65,0.00,,,0.00,Wunderground v.1.15,2013-05-01 17:08:00,
2013-05-01 12:13:00,69.9,56.7,30.09,SE,139,1.0,8.0,63,0.00,,,0.00,Wunderground v.1.15,2013-05-01 17:13:00,
2013-05-01 12:18:00,70.0,56.8,30.09,SSE,152,0.0,8.0,63,0.00,,,0.00,Wunderground v.1.15,2013-05-01 17:18:00,
2013-05-01 12:23:00,70.0,56.8,30.09,NE,50,0.0,3.0,63,0.00,,,0.00,Wunderground v.1.15,2013-05-01 17:23:00,
2013-05-01 12:28:00,70.1,56.9,30.09,South,179,0.0,7.0,63,0.00,,,0.00,Wunderground v.1.15,2013-05-01 17:28:00,
2013-05-01 12:33:00,70.3,57.5,30.10,East,98,5.0,5.0,64,0.00,,,0.00,Wunderground v.1.15,2013-05-01 17:33:00,
2013-05-01 12:38:00,70.5,57.3,30.10,SE,131,0.0,6.0,63,0.00,,,0.00,Wunderground v.1.15,2013-05-01 17:38:00,
2013-05-01 12:43:00,70.5,56.9,30.10,SE,124,0.0,5.0,62,0.00,,,0.00,Wunderground v.1.15,2013-05-01 17:43:00,
2013-05-01 12:48:00,70.7,57.5,30.10,East,84,5.0,5.0,63,0.00,,,0.00,Wunderground v.1.15,2013-05-01 17:48:00,
2013-05-01 12:53:00,71.1,56.5,30.10,WSW,252,0.0,6.0,60,0.00,,,0.00,Wunderground v.1.15,2013-05-01 17:53:00,
2013-05-01 12:58:00,71.2,56.6,30.10,SE,129,0.0,6.0,60,0.00,,,0.00,Wunderground v.1.15,2013-05-01 17:58:00,
2013-05-01 13:03:00,71.3,55.8,30.10,SSE,153,1.0,5.0,58,0.00,,,0.00,Wunderground v.1.15,2013-05-01 18:03:00,
2013-05-01 13:08:00,71.3,56.2,30.09,NW,308,0.0,7.0,59,0.00,,,0.00,Wunderground v.1.15,2013-05-01 18:08:00,
2013-05-01 13:13:00,71.4,56.3,30.10,SE,135,0.0,6.0,59,0.00,,,0.00,Wunderground v.1.15,2013-05-01 18:13:00,
2013-05-01 13:18:00,71.7,55.7,30.09,SE,135,2.0,6.0,57,0.00,,,0.00,Wunderground v.1.15,2013-05-01 18:18:00,
2013-05-01 13:24:00,71.8,55.7,30.09,ESE,123,0.0,3.0,57,0.00,,,0.00,Wunderground v.1.15,2013-05-01 18:24:00,
2013-05-01 13:29:00,71.6,56.0,30.09,SE,126,3.0,5.0,58,0.00,,,0.00,Wunderground v.1.15,2013-05-01 18:29:00,
2013-05-01 13:34:00,71.5,55.5,30.09,South,188,0.0,3.0,57,0.00,,,0.00,Wunderground v.1.15,2013-05-01 18:34:00,
2013-05-01 13:39:00,71.2,56.6,30.09,ESE,115,3.0,7.0,60,0.00,,,0.00,Wunderground v.1.15,2013-05-01 18:39:00,
2013-05-01 13:44:00,71.2,55.2,30.09,SE,134,3.0,6.0,57,0.00,,,0.00,Wunderground v.1.15,2013-05-01 18:44:00,
2013-05-01 13:49:00,71.2,55.2,30.09,SSE,151,1.0,6.0,57,0.00,,,0.00,Wunderground v.1.15,2013-05-01 18:49:00,
2013-05-01 13:54:00,71.4,55.4,30.09,SE,125,1.0,5.0,57,0.00,,,0.00,Wunderground v.1.15,2013-05-01 18:54:00,
2013-05-01 13:59:00,71.5,56.4,30.08,SE,134,0.0,6.0,59,0.00,,,0.00,Wunderground v.1.15,2013-05-01 18:59:00,
2013-05-01 14:04:00,71.7,56.1,30.08,East,80,1.0,5.0,58,0.00,,,0.00,Wunderground v.1.15,2013-05-01 19:04:00,
2013-05-01 14:09:00,71.8,56.2,30.08,NW,304,1.0,5.0,58,0.00,,,0.00,Wunderground v.1.15,2013-05-01 19:09:00,
2013-05-01 14:14:00,71.7,56.6,30.07,East,98,2.0,4.0,59,0.00,,,0.00,Wunderground v.1.15,2013-05-01 19:14:00,
2013-05-01 14:19:00,71.7,56.1,30.07,ESE,117,0.0,4.0,58,0.00,,,0.00,Wunderground v.1.15,2013-05-01 19:19:00,
2013-05-01 14:24:00,71.9,55.8,30.07,ESE,102,0.0,3.0,57,0.00,,,0.00,Wunderground v.1.15,2013-05-01 19:24:00,
2013-05-01 14:29:00,72.0,56.4,30.07,East,94,3.0,5.0,58,0.00,,,0.00,Wunderground v.1.15,2013-05-01 19:29:00,
2013-05-01 14:34:00,72.1,56.0,30.07,ENE,70,2.0,7.0,57,0.00,,,0.00,Wunderground v.1.15,2013-05-01 19:34:00,
2013-05-01 14:39:00,72.0,56.4,30.07,ESE,122,1.0,7.0,58,0.00,,,0.00,Wunderground v.1.15,2013-05-01 19:39:00,
2013-05-01 14:44:00,71.6,55.6,30.07,ESE,109,2.0,5.0,57,0.00,,,0.00,Wunderground v.1.15,2013-05-01 19:44:00,
2013-05-01 14:49:00,71.4,55.9,30.06,East,98,1.0,5.0,58,0.00,,,0.00,Wunderground v.1.15,2013-05-01 19:49:00,
2013-05-01 14:54:00,71.4,55.9,30.06,SE,128,0.0,3.0,58,0.00,,,0.00,Wunderground v.1.15,2013-05-01 19:54:00,
2013-05-01 14:59:00,71.4,55.9,30.06,ESE,123,1.0,4.0,58,0.00,,,0.00,Wunderground v.1.15,2013-05-01 19:59:00,
2013-05-01 15:05:00,71.1,55.6,30.06,ESE,117,1.0,4.0,58,0.00,,,0.00,Wunderground v.1.15,2013-05-01 20:05:00,
2013-05-01 15:10:00,71.2,56.1,30.06,SE,138,0.0,1.0,59,0.00,,,0.00,Wunderground v.1.15,2013-05-01 20:10:00,
2013-05-01 15:15:00,71.2,55.7,30.06,NNE,21,2.0,4.0,58,0.00,,,0.00,Wunderground v.1.15,2013-05-01 20:15:00,
2013-05-01 15:20:00,71.3,55.3,30.06,South,176,0.0,1.0,57,0.00,,,0.00,Wunderground v.1.15,2013-05-01 20:20:00,
2013-05-01 15:25:00,71.3,55.3,30.06,ENE,65,1.0,6.0,57,0.00,,,0.00,Wunderground v.1.15,2013-05-01 20:25:00,
2013-05-01 15:30:00,71.5,55.9,30.06,ESE,107,0.0,1.0,58,0.00,,,0.00,Wunderground v.1.15,2013-05-01 20:30:00,
2013-05-01 15:35:00,71.6,55.6,30.06,SE,136,0.0,3.0,57,0.00,,,0.00,Wunderground v.1.15,2013-05-01 20:35:00,
2013-05-01 15:40:00,71.5,55.9,30.06,ESE,116,0.0,1.0,58,0.00,,,0.00,Wunderground v.1.15,2013-05-01 20:40:00,
2013-05-01 15:45:00,71.3,55.3,30.06,West,271,0.0,3.0,57,0.00,,,0.00,Wunderground v.1.15,2013-05-01 20:45:00,
2013-05-01 15:50:00,71.4,55.4,30.06,ESE,117,2.0,2.0,57,0.00,,,0.00,Wunderground v.1.15,2013-05-01 20:50:00,
2013-05-01 15:55:00,71.5,55.5,30.06,SE,126,0.0,5.0,57,0.00,,,0.00,Wunderground v.1.15,2013-05-01 20:55:00,
2013-05-01 16:00:00,71.4,55.9,30.06,East,101,0.0,2.0,58,0.00,,,0.00,Wunderground v.1.15,2013-05-01 21:00:00,
2013-05-01 16:05:00,71.4,56.3,30.06,ESE,115,0.0,3.0,59,0.00,,,0.00,Wunderground v.1.15,2013-05-01 21:05:00,
2013-05-01 16:10:00,71.5,55.9,30.06,NE,34,0.0,1.0,58,0.00,,,0.00,Wunderground v.1.15,2013-05-01 21:10:00,
2013-05-01 16:15:00,71.5,55.5,30.06,SE,131,2.0,3.0,57,0.00,,,0.00,Wunderground v.1.15,2013-05-01 21:15:00,
2013-05-01 16:20:00,71.4,55.9,30.06,SE,134,0.0,0.0,58,0.00,,,0.00,Wunderground v.1.15,2013-05-01 21:20:00,
2013-05-01 16:25:00,71.4,55.4,30.05,East,98,0.0,3.0,57,0.00,,,0.00,Wunderground v.1.15,2013-05-01 21:25:00,
2013-05-01 16:31:00,71.3,55.8,30.05,ESE,107,0.0,1.0,58,0.00,,,0.00,Wunderground v.1.15,2013-05-01 21:31:00,
2013-05-01 16:36:00,71.2,55.7,30.05,SE,126,0.0,2.0,58,0.00,,,0.00,Wunderground v.1.15,2013-05-01 21:36:00,
2013-05-01 16:41:00,71.0,55.5,30.05,ESE,113,0.0,1.0,58,0.00,,,0.00,Wunderground v.1.15,2013-05-01 21:41:00,
2013-05-01 16:46:00,70.8,55.8,30.06,SE,140,0.0,7.0,59,0.00,,,0.00,Wunderground v.1.15,2013-05-01 21:46:00,
2013-05-01 16:51:00,70.7,55.7,30.05,SE,140,0.0,1.0,59,0.00,,,0.00,Wunderground v.1.15,2013-05-01 21:51:00,
2013-05-01 16:56:00,70.5,55.9,30.05,ESE,115,0.0,4.0,60,0.00,,,0.00,Wunderground v.1.15,2013-05-01 21:56:00,
2013-05-01 17:01:00,70.4,55.8,30.05,SE,137,0.0,2.0,60,0.00,,,0.00,Wunderground v.1.15,2013-05-01 22:01:00,
2013-05-01 17:06:00,70.3,55.8,30.05,SE,136,0.0,2.0,60,0.00,,,0.00,Wunderground v.1.15,2013-05-01 22:06:00,
2013-05-01 17:11:00,70.2,56.1,30.05,SE,134,4.0,4.0,61,0.00,,,0.00,Wunderground v.1.15,2013-05-01 22:11:00,
2013-05-01 17:16:00,70.1,56.0,30.05,SE,132,0.0,4.0,61,0.00,,,0.00,Wunderground v.1.15,2013-05-01 22:16:00,
2013-05-01 17:22:00,70.0,56.4,30.05,SSE,167,1.0,2.0,62,0.00,,,0.00,Wunderground v.1.15,2013-05-01 22:22:00,
2013-05-01 17:27:00,69.9,56.3,30.04,SSE,167,0.0,2.0,62,0.00,,,0.00,Wunderground v.1.15,2013-05-01 22:27:00,
2013-05-01 17:32:00,69.7,56.1,30.05,SE,141,1.0,2.0,62,0.00,,,0.00,Wunderground v.1.15,2013-05-01 22:32:00,
2013-05-01 17:37:00,69.6,56.4,30.05,SE,130,0.0,3.0,63,0.00,,,0.00,Wunderground v.1.15,2013-05-01 22:37:00,
2013-05-01 17:42:00,69.5,56.3,30.04,SE,134,0.0,1.0,63,0.00,,,0.00,Wunderground v.1.15,2013-05-01 22:42:00,
2013-05-01 17:47:00,69.6,56.4,30.05,ESE,119,0.0,2.0,63,0.00,,,0.00,Wunderground v.1.15,2013-05-01 22:47:00,
2013-05-01 17:52:00,69.5,56.3,30.04,SE,132,1.0,2.0,63,0.00,,,0.00,Wunderground v.1.15,2013-05-01 22:52:00,
2013-05-01 17:57:00,69.4,56.7,30.04,SE,132,0.0,3.0,64,0.00,,,0.00,Wunderground v.1.15,2013-05-01 22:57:00,
2013-05-01 18:02:00,69.2,56.5,30.04,SE,132,0.0,1.0,64,0.00,,,0.00,Wunderground v.1.15,2013-05-01 23:02:00,
2013-05-01 18:07:00,69.1,56.8,30.04,SE,132,0.0,2.0,65,0.00,,,0.00,Wunderground v.1.15,2013-05-01 23:07:00,
2013-05-01 18:12:00,68.9,56.6,30.04,SE,133,0.0,1.0,65,0.00,,,0.00,Wunderground v.1.15,2013-05-01 23:12:00,
2013-05-01 18:17:00,68.7,56.9,30.04,SE,133,0.0,1.0,66,0.00,,,0.00,Wunderground v.1.15,2013-05-01 23:17:00,
2013-05-01 18:22:00,68.5,57.1,30.05,SE,133,0.0,0.0,67,0.00,,,0.00,Wunderground v.1.15,2013-05-01 23:22:00,
2013-05-01 18:27:00,68.4,57.4,30.05,SE,133,0.0,2.0,68,0.00,,,0.00,Wunderground v.1.15,2013-05-01 23:27:00,
2013-05-01 18:32:00,68.1,57.1,30.04,SE,132,0.0,1.0,68,0.00,,,0.00,Wunderground v.1.15,2013-05-01 23:32:00,
2013-05-01 18:37:00,67.8,57.3,30.05,SSE,151,0.0,3.0,69,0.00,,,0.00,Wunderground v.1.15,2013-05-01 23:37:00,
2013-05-01 18:42:00,67.4,57.3,30.05,SE,140,0.0,0.0,70,0.00,,,0.00,Wunderground v.1.15,2013-05-01 23:42:00,
2013-05-01 18:47:00,67.2,57.5,30.05,SE,137,0.0,2.0,71,0.00,,,0.00,Wunderground v.1.15,2013-05-01 23:47:00,
2013-05-01 18:52:00,66.9,57.6,30.05,SE,136,1.0,2.0,72,0.00,,,0.00,Wunderground v.1.15,2013-05-01 23:52:00,
2013-05-01 18:57:00,66.5,57.6,30.05,SE,144,0.0,3.0,73,0.00,,,0.00,Wunderground v.1.15,2013-05-01 23:57:00,
2013-05-01 19:02:00,66.1,57.2,30.05,SE,136,0.0,4.0,73,0.00,,,0.00,Wunderground v.1.15,2013-05-02 00:02:00,
2013-05-01 19:07:00,65.8,56.9,30.05,SE,128,0.0,4.0,73,0.00,,,0.00,Wunderground v.1.15,2013-05-02 00:07:00,
2013-05-01 19:12:00,65.4,56.9,30.05,SSE,153,1.0,3.0,74,0.00,,,0.00,Wunderground v.1.15,2013-05-02 00:12:00,
2013-05-01 19:17:00,65.1,57.0,30.05,SE,128,1.0,3.0,75,0.00,,,0.00,Wunderground v.1.15,2013-05-02 00:17:00,
2013-05-01 19:22:00,64.7,56.6,30.05,SE,127,0.0,4.0,75,0.00,,,0.00,Wunderground v.1.15,2013-05-02 00:22:00,
2013-05-01 19:27:00,64.4,56.7,30.05,SE,127,1.0,4.0,76,0.00,,,0.00,Wunderground v.1.15,2013-05-02 00:27:00,
2013-05-01 19:32:00,64.1,56.4,30.05,SE,146,2.0,4.0,76,0.00,,,0.00,Wunderground v.1.15,2013-05-02 00:32:00,
2013-05-01 19:37:00,63.9,56.5,30.05,SE,129,5.0,5.0,77,0.00,,,0.00,Wunderground v.1.15,2013-05-02 00:37:00,
2013-05-01 19:43:00,63.6,56.3,30.05,SE,126,1.0,5.0,77,0.00,,,0.00,Wunderground v.1.15,2013-05-02 00:43:00,
2013-05-01 19:48:00,63.5,56.5,30.05,ESE,123,4.0,8.0,78,0.00,,,0.00,Wunderground v.1.15,2013-05-02 00:48:00,
2013-05-01 19:53:00,63.3,56.3,30.05,ESE,122,0.0,5.0,78,0.00,,,0.00,Wunderground v.1.15,2013-05-02 00:53:00,
2013-05-01 19:58:00,63.2,56.6,30.05,SE,131,4.0,5.0,79,0.00,,,0.00,Wunderground v.1.15,2013-05-02 00:58:00,
2013-05-01 20:03:00,63.1,56.5,30.05,SE,134,4.0,6.0,79,0.00,,,0.00,Wunderground v.1.15,2013-05-02 01:03:00,
2013-05-01 20:08:00,63.0,56.4,30.05,SE,138,5.0,7.0,79,0.00,,,0.00,Wunderground v.1.15,2013-05-02 01:08:00,
2013-05-01 20:13:00,62.9,56.6,30.06,SE,132,4.0,6.0,80,0.00,,,0.00,Wunderground v.1.15,2013-05-02 01:13:00,
2013-05-01 20:18:00,62.7,56.4,30.06,SE,138,6.0,7.0,80,0.00,,,0.00,Wunderground v.1.15,2013-05-02 01:18:00,
2013-05-01 20:23:00,62.6,56.3,30.06,ESE,111,3.0,7.0,80,0.00,,,0.00,Wunderground v.1.15,2013-05-02 01:23:00,
2013-05-01 20:28:00,62.4,56.1,30.06,East,90,1.0,9.0,80,0.00,,,0.00,Wunderground v.1.15,2013-05-02 01:28:00,
2013-05-01 20:33:00,62.2,56.0,30.06,ESE,108,5.0,9.0,80,0.00,,,0.00,Wunderground v.1.15,2013-05-02 01:33:00,
2013-05-01 20:38:00,62.0,56.1,30.06,SE,136,6.0,9.0,81,0.00,,,0.00,Wunderground v.1.15,2013-05-02 01:38:00,
2013-05-01 20:43:00,61.8,55.9,30.07,SE,128,5.0,9.0,81,0.00,,,0.00,Wunderground v.1.15,2013-05-02 01:43:00,
2013-05-01 20:48:00,61.7,55.8,30.06,SE,137,4.0,9.0,81,0.00,,,0.00,Wunderground v.1.15,2013-05-02 01:48:00,
2013-05-01 20:53:00,61.6,55.7,30.07,SE,129,7.0,9.0,81,0.00,,,0.00,Wunderground v.1.15,2013-05-02 01:53:00,
2013-05-01 20:58:00,61.4,55.5,30.07,South,172,1.0,9.0,81,0.00,,,0.00,Wunderground v.1.15,2013-05-02 01:58:00,
2013-05-01 21:03:00,61.2,55.3,30.08,SE,130,7.0,10.0,81,0.00,,,0.00,Wunderground v.1.15,2013-05-02 02:03:00,
2013-05-01 21:08:00,61.3,55.4,30.08,SE,138,0.0,10.0,81,0.00,,,0.00,Wunderground v.1.15,2013-05-02 02:08:00,
2013-05-01 21:13:00,61.2,55.7,30.08,ESE,116,5.0,8.0,82,0.00,,,0.00,Wunderground v.1.15,2013-05-02 02:13:00,
2013-05-01 21:18:00,61.1,55.6,30.08,SE,134,3.0,9.0,82,0.00,,,0.00,Wunderground v.1.15,2013-05-02 02:18:00,
2013-05-01 21:23:00,61.0,55.5,30.08,ENE,74,2.0,10.0,82,0.00,,,0.00,Wunderground v.1.15,2013-05-02 02:23:00,
2013-05-01 21:28:00,60.8,55.3,30.08,SW,223,5.0,10.0,82,0.00,,,0.00,Wunderground v.1.15,2013-05-02 02:28:00,
2013-05-01 21:33:00,60.7,55.2,30.08,SE,144,6.0,8.0,82,0.00,,,0.00,Wunderground v.1.15,2013-05-02 02:33:00,
2013-05-01 21:38:00,60.4,54.9,30.09,NNE,32,4.0,8.0,82,0.00,,,0.00,Wunderground v.1.15,2013-05-02 02:38:00,
2013-05-01 21:43:00,60.3,54.8,30.09,SSE,157,5.0,9.0,82,0.00,,,0.00,Wunderground v.1.15,2013-05-02 02:43:00,
2013-05-01 21:48:00,60.2,54.3,30.08,SE,135,8.0,9.0,81,0.00,,,0.00,Wunderground v.1.15,2013-05-02 02:48:00,
2013-05-01 21:54:00,59.9,54.4,30.09,SE,136,2.0,8.0,82,0.00,,,0.00,Wunderground v.1.15,2013-05-02 02:54:00,
2013-05-01 21:59:00,59.6,54.1,30.09,SE,134,4.0,11.0,82,0.00,,,0.00,Wunderground v.1.15,2013-05-02 02:59:00,
2013-05-01 22:04:00,59.4,53.9,30.09,NNE,14,3.0,9.0,82,0.00,,,0.00,Wunderground v.1.15,2013-05-02 03:04:00,
2013-05-01 22:09:00,59.3,53.5,30.09,West,270,4.0,9.0,81,0.00,,,0.00,Wunderground v.1.15,2013-05-02 03:09:00,
2013-05-01 22:14:00,59.2,53.4,30.09,SE,124,4.0,9.0,81,0.00,,,0.00,Wunderground v.1.15,2013-05-02 03:14:00,
2013-05-01 22:19:00,59.2,53.4,30.09,East,92,2.0,9.0,81,0.00,,,0.00,Wunderground v.1.15,2013-05-02 03:19:00,
2013-05-01 22:24:00,59.1,52.9,30.09,WNW,284,2.0,9.0,80,0.00,,,0.00,Wunderground v.1.15,2013-05-02 03:24:00,
2013-05-01 22:29:00,59.0,53.2,30.09,SE,126,7.0,9.0,81,0.00,,,0.00,Wunderground v.1.15,2013-05-02 03:29:00,
2013-05-01 22:34:00,58.9,53.1,30.09,SSW,213,1.0,5.0,81,0.00,,,0.00,Wunderground v.1.15,2013-05-02 03:34:00,
2013-05-01 22:39:00,58.8,52.6,30.09,ESE,120,2.0,5.0,80,0.00,,,0.00,Wunderground v.1.15,2013-05-02 03:39:00,
2013-05-01 22:44:00,58.7,52.9,30.09,SE,143,3.0,4.0,81,0.00,,,0.00,Wunderground v.1.15,2013-05-02 03:44:00,
2013-05-01 22:49:00,58.7,52.9,30.09,WSW,242,2.0,4.0,81,0.00,,,0.00,Wunderground v.1.15,2013-05-02 03:49:00,
2013-05-01 22:54:00,58.7,52.9,30.10,SE,130,0.0,4.0,81,0.00,,,0.00,Wunderground v.1.15,2013-05-02 03:54:00,
2013-05-01 22:59:00,58.6,52.4,30.09,SSE,149,0.0,4.0,80,0.00,,,0.00,Wunderground v.1.15,2013-05-02 03:59:00,
2013-05-01 23:01:00,58.6,52.4,30.09,SSE,149,0.0,1.0,80,0.00,,,0.00,Wunderground v.1.15,2013-05-02 04:01:00,
2013-05-01 23:02:00,58.6,52.4,30.09,SSE,150,0.0,1.0,80,0.00,,,0.00,Wunderground v.1.15,2013-05-02 04:02:00,
2013-05-01 23:07:00,58.5,52.7,30.09,South,169,1.0,2.0,81,0.00,,,0.00,Wunderground v.1.15,2013-05-02 04:07:00,
2013-05-01 23:12:00,58.3,52.5,30.09,SSW,196,0.0,4.0,81,0.00,,,0.00,Wunderground v.1.15,2013-05-02 04:12:00,
2013-05-01 23:17:00,58.1,52.3,30.09,SE,135,1.0,4.0,81,0.00,,,0.00,Wunderground v.1.15,2013-05-02 04:17:00,
2013-05-01 23:22:00,57.9,52.4,30.10,SSE,156,0.0,1.0,82,0.00,,,0.00,Wunderground v.1.15,2013-05-02 04:22:00,
2013-05-01 23:27:00,57.8,52.3,30.09,SE,134,0.0,4.0,82,0.00,,,0.00,Wunderground v.1.15,2013-05-02 04:27:00,
2013-05-01 23:32:00,57.6,52.1,30.09,SSE,155,1.0,5.0,82,0.00,,,0.00,Wunderground v.1.15,2013-05-02 04:32:00,
2013-05-01 23:37:00,57.5,52.4,30.09,SE,127,2.0,5.0,83,0.00,,,0.00,Wunderground v.1.15,2013-05-02 04:37:00,
2013-05-01 23:42:00,57.3,52.2,30.09,SE,136,0.0,1.0,83,0.00,,,0.00,Wunderground v.1.15,2013-05-02 04:42:00,
2013-05-01 23:47:00,57.2,52.4,30.09,SE,135,1.0,2.0,84,0.00,,,0.00,Wunderground v.1.15,2013-05-02 04:47:00,
2013-05-01 23:52:00,57.1,52.3,30.09,SE,141,4.0,5.0,84,0.00,,,0.00,Wunderground v.1.15,2013-05-02 04:52:00,
2013-05-01 23:57:00,57.0,52.2,30.09,ESE,121,1.0,6.0,84,0.00,,,0.00,Wunderground v.1.15,2013-05-02 04:57:00,